Location: Essen
(51.4609°N, 7.0127°E)
Time: 08:19:14
(UTC+01:00)

ISS - Visible Passes

Search period start: 17 February 2019 00:00
Search period end: 27 February 2019 00:00
Orbit: 403 x 411 km, 51.6° (Epoch: 17 February)

Date Brightness Start Highest point End Pass type
(mag) Time Alt. Az. Time Alt. Az. Time Alt. Az.
23 Feb -0.7 06:35:05 10° SSE 06:36:20 12° SE 06:37:37 10° ESE visible
25 Feb -1.5 06:26:56 10° SSW 06:29:31 22° SE 06:32:07 10° E visible
26 Feb -1.1 05:36:21 10° S 05:38:13 14° SE 05:40:05 10° ESE visible
